sat.trackr.live / text

‹ back to catalog

TRANSPORTER-10 OBJECT AG

NORAD 59128 · 2024-043AG

PAYLOAD ACTIVE UNKNOWN

§ Identity

Operator
Country
TBD
Launch date
2024-03-04
Launch site
AFWTR
Launch vehicle
Mass (kg)
RCS (m²)

External: N2YO · Heavens-Above · Gunter

§ Orbital elements

Epoch: 2026-09-22T18:42:56.545632Z

Period
93.92 min
Inclination
97.5778°
Eccentricity
0.0008230
Mean motion
15.33140402 rev/d
Perigee alt
460.8 km
Apogee alt
472.1 km
Semi-major
6,844.6 km
B*
1.5407e-4
RAAN
46.7021°
Arg perigee
251.0430°
Mean anomaly
108.9920°
Rev number
14,206

§ Raw data

TRANSPORTER-10 OBJECT AG1 59128U 24043AG  26265.77982113  .00004854  00000+0  15407-3 0  99972 59128  97.5778  46.7021 0008230 251.0430 108.9920 15.33140402142063

JSON: /api/v1/satellites/59128 · /tle

For live sub-satellite position, see the globe view (requires WebGL).

§ Visibility from observer

Set your observer location to see the next 7 days of passes ≥ 10°. The values pass through the URL so the page stays shareable.

No JS? Fill the form by hand. The geolocation button needs JavaScript.